Location: Newark
(45.0333°N, 18.2865°E)
Time: 11:25:38
(UTC+00:00)

Envisat - Visible Passes

Search period start: 24 September 2021 00:00
Search period end: 04 October 2021 00:00
Orbit: 764 x 766 km, 98.2° (Epoch: 23 September)

Date Brightness Start Highest point End Pass type
(mag) Time Alt. Az. Time Alt. Az. Time Alt. Az.
24 Sep 5.6 02:57:27 10° NE 03:01:19 22° E 03:05:10 10° SE visible
25 Sep 3.2 03:58:43 10° NNE 04:03:50 78° ESE 04:08:54 10° S visible
26 Sep 4.7 03:22:10 10° NNE 03:26:52 36° E 03:31:30 10° SSE visible
27 Sep 5.9 02:46:23 10° NE 02:49:41 17° E 02:52:58 10° SE visible
28 Sep 3.6 03:47:15 10° NNE 03:52:18 62° E 03:57:19 10° S visible
29 Sep 5.1 03:10:52 10° NE 03:15:16 29° E 03:19:38 10° SSE visible
30 Sep 6.0 02:35:33 10° ENE 02:38:02 13° E 02:40:30 10° ESE visible
01 Oct 4.1 03:35:49 10° NNE 03:40:45 49° E 03:45:40 10° S visible
02 Oct 5.5 02:59:38 10° NE 03:03:40 23° E 03:07:39 10° SE visible
03 Oct 6.3 02:25:34 10° ENE 02:26:21 10° E 02:27:08 10° E visible
03 Oct 3.1 04:01:01 10° NNE 04:06:09 83° ESE 04:11:14 10° SSW visible
